GPS 2-04 Rocket1 - Orbit

View from above orbital plane
View from above orbital plane
View from above satellite
View from above satellite

Ground track
Ground track

The orbit data is extracted from the following two-line orbital elements,

1 20303U 89085B   13168.84388478  .00004657  00000-0  25585-3 0  5454
2 20303 035.6355 046.2756 0156551 023.0232 046.6059 15.03791121278920
Epoch (UTC): 17 June 2013 20:15:11
Eccentricity: 0.0156551
inclination: 35.6355°
perigee height: 446 km
apogee height: 664 km
right ascension of ascending node: 46.2756°
argument of perigee: 23.0232°
revolutions per day: 15.03791121
mean anomaly at epoch: 46.6059°
orbit number at epoch: 27892

The dashed part of the orbit path shows where the satellite is in the earth's shadow,  

Developed and maintained by Chris Peat, Heavens-Above GmbH. Please read the updated FAQ before sending e-mail. Imprint. DLR